first_date_of_week,week_number,num_days_data_collected,Arecaceae (Weekly sum: grains/m3),Casuarina (Weekly sum: grains/m3),Urticaceae (Weekly sum: grains/m3),Acacia (Weekly sum: grains/m3),Myrtaceae (Weekly sum: grains/m3),Chenopodiaceae (Weekly sum: grains/m3),Cyperaceae (Weekly sum: grains/m3),Asteraceae (Weekly sum: grains/m3),Cupressaceae (Weekly sum: grains/m3),Pinus (Weekly sum: grains/m3),Poaceae (Weekly sum: grains/m3),Other (known and unknown) (Weekly sum: grains/m3),Total pollen (Weekly sum: grains/m3)
8/03/2004,10,,,,,,,,,,,,,,
15/03/2004,11,4,0,0,0,5.4,1.08,0,0,0,0,0,6.48,1.62,14.58
22/03/2004,12,6,2.16,0,0,2.16,2.7,0,0,0,0,0,8.64,8.1,23.76
29/03/2004,13,6,10.8,0.54,0,10.26,2.7,0,0,0,0,0,61.56,39.45,125.31
5/04/2004,14,7,16.2,1.08,0,1.62,7.56,0,0,0,0,0,91.8,59.45,177.71
12/04/2004,15,6,25.38,3.24,0,5.4,5.4,0,0,0,0,0,101.53,52.97,193.92
19/04/2004,16,7,24.57,2.16,0,3.24,17.01,0,4.24,0,0,0,59.4,34.95,145.57
26/04/2004,17,7,29.7,0.54,0,9.18,7.56,0,1.62,1.08,0,0,68.04,27.03,144.75
3/05/2004,18,7,51.3,0,0,10.26,6.48,0,2.16,0,0,0,48.06,15.68,133.94
10/05/2004,19,7,16.2,0,1.08,3.85,5.08,0.54,4.39,0,0,0,40.72,12.11,83.97
17/05/2004,20,6,17.82,2.16,1.62,7.56,12.42,0,6.48,0,6.48,0,23.22,9.18,86.94
24/05/2004,21,7,25.59,0,0,11.44,7.02,1.08,6.04,0,15.66,0,37.51,12.65,116.99
31/05/2004,22,7,54.45,0.54,3.81,8.51,11.77,0.54,10.38,0,20.43,0,13.93,10.9,135.26
7/06/2004,23,7,55.62,3.78,2.7,8.64,16.2,0,9.72,0,12.42,0,51.3,14.1,174.48
14/06/2004,24,7,58.32,0,2.16,3.78,16.74,1.08,3.24,0,3.78,0,70.2,34.06,193.36
21/06/2004,25,7,33.68,0,0.54,2.75,29.9,2.7,5.45,0.54,1.08,0,22.78,11.44,110.86
28/06/2004,26,7,24.3,1.62,0,8.1,10.8,0,2.7,0,1.08,0,6.48,4.86,59.94
5/07/2004,27,7,31.32,0.54,0,7.02,24.84,0,1.62,0,0,0,4.86,7.02,77.22
12/07/2004,28,7,62.45,8.69,0.54,1.62,43.2,0,2.75,0,0,1.62,8.25,9.19,138.31
19/07/2004,29,7,47.52,5.94,0,2.16,19.98,2.16,0,0,0,0.54,7.02,7.57,92.89
26/07/2004,30,6,19.98,1.62,0,2.16,14.58,0.54,0,0,0.54,0.54,1.62,5.94,47.52
2/08/2004,31,4,10.26,0.54,0,0,4.86,0,1.08,0.54,2.16,0,2.16,11.88,33.48
9/08/2004,32,6,19.98,0.54,0,1.62,9.72,0.54,0.54,0,1.08,1.08,2.16,14.59,51.85
16/08/2004,33,7,52.92,3.24,0,3.78,15.12,0,2.7,0,1.62,0.54,3.24,16.74,99.9
23/08/2004,34,7,39.42,1.08,0,0,15.66,0,0.54,0,1.62,0.54,3.24,29.16,91.26
30/08/2004,35,7,37.03,8.4,0,1.08,20.49,0,0,0.54,0.54,0,6.04,11.84,85.96
6/09/2004,36,7,39.11,98.06,0,0,16.97,0,0,0,1.08,0,0.54,3.81,159.57
13/09/2004,37,7,39.47,12.96,0,0.54,37.7,1.08,0,0.54,2.7,0,3.24,7.56,105.79
20/09/2004,38,7,25.92,2.7,0,0,48.06,0,0.54,0,5.4,0,2.16,8.65,93.43
27/09/2004,39,5,37.8,1.08,0,0,23.22,0,0,0,5.4,0,2.7,12.44,82.64
4/10/2004,40,5,10.8,0,0,0,57.6,0,0.54,0,2.88,0,1.08,6.3,79.2
11/10/2004,41,6,11.34,3.24,0,0,32.4,0,0,0.54,8.1,0,2.16,5.94,63.72
18/10/2004,42,6,7.78,4.58,0,0.54,44.22,0,0.76,0.76,15.22,0,4.67,21.51,100.04
25/10/2004,43,5,23.33,3.24,0,0,24.19,0,0,1.08,12.96,0,0.54,11.57,76.91
1/11/2004,44,5,24.84,2.7,0,0,29.7,0,0,0,47.52,0,2.7,14.61,122.07
8/11/2004,45,5,10.26,1.62,0,0,17.28,0,0.54,0,11.34,0,3.24,0,44.28
15/11/2004,46,6,18.9,0.54,0,0,27.54,0,0.54,0,24.84,0,6.48,12.43,91.27
22/11/2004,47,5,7.02,0,0,0,8.1,0,0,0,19.98,0,3.24,9.73,48.07
29/11/2004,48,,,,,,,,,,,,,0,
6/12/2004,49,5,2.7,1.08,0,0.54,16.2,0,0,0,8.1,0,2.7,2.16,33.48
13/12/2004,50,6,7.56,0,0,0,12.42,0,1.08,0,68.59,0,4.86,13.51,108.02
20/12/2004,51,5,3.24,0.54,0,0,1.62,0,0,0,3.78,0,5.4,1.08,15.66
27/12/2004,52,5,1.62,0,0,0,8.1,0,1.62,0,1.62,0,1.68,3.31,17.95
1/01/2005,0,1,0,0,0,0,1.62,0,0,0,0,0,0.54,0,2.16
3/01/2005,1,7,4.86,1.62,0,0,10.26,0,0.54,0,9.72,0,12.96,11.34,51.3
10/01/2005,2,7,6.48,0,0,0,2.16,0,1.62,0,3.78,0,6.48,2.16,22.68
17/01/2005,3,3,1.62,0.54,0,0,3.24,0,8.1,0,1.62,0,12.42,4.86,32.4
24/01/2005,4,6,0.54,3.24,0,0,58.33,0,0,0,0,0,8.1,4.33,74.54
31/01/2005,5,7,10.61,0.54,0,0.54,35.99,0,0.54,0.54,0,0,4.32,1.09,54.17
7/02/2005,6,7,3.24,0,0,1.08,9.72,0,0,0,0,0,11.34,6.48,31.86
14/02/2005,7,4,8.64,0,0,1.08,16.2,0.54,2.16,0,0,0,14.04,8.65,51.31
21/02/2005,8,1,3.78,0,0,0,7.56,0,3.24,0,0.54,0,15.12,1.09,31.33
28/02/2005,9,5,3.78,0,0,0,75.07,0,6.48,0,0.54,0,6.48,2.71,95.06
7/03/2005,10,5,5.94,0,0,1.62,145.3,0.54,3.24,0,0.54,0,15.12,2.16,174.46
14/03/2005,11,5,1.08,1.08,0,0.54,3.78,0,0,0,0,0,4.32,0.54,11.34
21/03/2005,12,6,11.34,1.62,0,6.48,4.32,0,5.94,0,0,0,20.52,1.62,51.84
28/03/2005,13,5,30.78,0,0,1.08,10.26,0,27,0,0.54,0,35.64,2.18,107.48
4/04/2005,14,7,23.22,0.54,0,4.32,17.82,1.08,27,0,0.54,0,52.38,8.12,135.02
11/04/2005,15,7,11.88,1.08,0,3.24,195.52,0,12.42,0,0,0,44.28,6.5,274.92
18/04/2005,16,7,68.59,1.08,0,5.94,87.5,1.62,28.08,0,1.08,0,108.55,5.43,307.87
25/04/2005,17,7,72.9,0.54,0,16.2,49.14,1.08,16.74,0,3.24,0,113.4,9.25,282.49
2/05/2005,18,7,68.04,1.08,0,4.86,66.97,0,16.74,0,0.54,0,57.24,5.45,220.92
9/05/2005,19,7,31.32,0,0,12.96,18.9,0,3.24,0,1.08,0.54,26.46,5.42,99.92
16/05/2005,20,7,32.94,1.08,0,5.4,36.18,1.08,1.08,0,0,0,19.44,3.25,100.45
23/05/2005,21,7,51.84,2.16,0,17.28,25.92,0,4.32,0,1.62,0,17.28,2.17,122.59
30/05/2005,22,7,31.32,0,0,11.34,21.06,0,2.7,0,3.24,0,10.26,3.24,83.16
6/06/2005,23,7,22.14,0.54,0,9.18,8.64,0.54,0,0,0,0.54,1.62,1.08,44.28
13/06/2005,24,7,59.95,1.08,0,5.4,4.86,0,0,0,1.08,0,6.48,4.32,83.17
20/06/2005,25,7,41.04,1.08,0,4.86,36.18,0.54,0,0,3.24,1.08,5.4,3.78,97.2
27/06/2005,26,7,48.07,5.4,0,3.24,48.6,0,0,0,3.24,0,4.86,4.87,118.28
4/07/2005,27,7,47.52,14.04,0,6.48,41.04,0,0,0,0,0,7.02,5.95,122.05
11/07/2005,28,7,30.78,2.16,0,2.16,28.08,0.54,0,0,0,0,1.62,4.86,70.2
18/07/2005,29,7,36.18,4.86,0,3.24,91.81,0.54,0,0,1.08,0,0.54,5.95,144.2
25/07/2005,30,7,50.76,0.54,0,3.24,71.28,0,1.62,0,1.08,0,2.7,7.05,138.27
1/08/2005,31,7,17.82,0.54,0,0.54,66.42,0,1.62,0,0.54,0.54,2.7,12.43,103.15
8/08/2005,32,7,39.42,0,0,1.62,125.3,0.54,1.08,0.54,4.32,0,4.86,16.77,194.45
15/08/2005,33,7,44.28,0,0,0.54,99.9,0.54,1.08,1.08,3.24,0,3.24,8.67,162.57
22/08/2005,34,7,52.38,0,0,0.54,109.63,1.08,1.08,0.54,5.94,0,6.48,10.31,187.98
29/08/2005,35,7,32.94,4.32,0,0.54,64.27,0,0,0,0,0,1.62,4.32,108.01
5/09/2005,36,7,3.78,20.52,0,0,31.86,0,0,0,2.7,0,2.7,2.7,64.26
12/09/2005,37,7,11.88,4.86,0,0,21.06,0,0,0,0,0,1.08,4.32,43.2
19/09/2005,38,7,16.2,1.08,0,0,18.36,0,0,0,2.7,0,2.7,2.16,43.2
26/09/2005,39,7,14.58,3.78,0,0,16.2,0.54,1.62,0,2.7,0,2.7,8.64,50.76
3/10/2005,40,7,18.36,0.54,0,0,29.7,0,1.08,0,3.24,0,1.08,11.88,65.88
10/10/2005,41,7,18.36,0,0,0.54,16.74,0,0,0,8.64,0,1.62,8.64,54.54
17/10/2005,42,7,2.7,0,0,0,18.36,0,0,0.54,2.16,0,2.7,8.1,34.56
24/10/2005,43,7,12.42,1.62,0,0,22.14,0,0.54,0,9.18,0,1.62,2.7,50.22
31/10/2005,44,7,2.7,1.62,0,0,5.4,0,0,0,7.56,0,1.08,2.7,21.06
7/11/2005,45,7,10.8,0,0.54,0,14.04,0,1.08,0,24.84,0,3.78,7.56,62.64
14/11/2005,46,2,5.4,0,0,0,3.24,0,0,0,13.5,0,0,3.78,25.92
